Year,Month,Day,Hour,Minute,Value (Times are PST for temperature in C)
2015,07,05,00,00,14.60
2015,07,05,00,01,14.60
2015,07,05,00,02,14.60
2015,07,05,00,03,14.60
2015,07,05,00,04,14.50
2015,07,05,00,05,14.50
2015,07,05,00,06,14.50
2015,07,05,00,07,14.40
2015,07,05,00,08,14.40
2015,07,05,00,09,14.40
2015,07,05,00,10,14.30
2015,07,05,00,11,14.30
2015,07,05,00,12,14.30
2015,07,05,00,13,14.20
2015,07,05,00,14,14.20
2015,07,05,00,15,14.10
2015,07,05,00,16,14.10
2015,07,05,00,17,14.00
2015,07,05,00,18,14.00
2015,07,05,00,19,13.90
2015,07,05,00,20,13.90
2015,07,05,00,21,13.90
2015,07,05,00,22,13.90
2015,07,05,00,23,13.90
2015,07,05,00,24,13.80
2015,07,05,00,25,13.80
2015,07,05,00,26,13.80
2015,07,05,00,27,13.80
2015,07,05,00,28,13.80
2015,07,05,00,29,13.80
2015,07,05,00,30,13.90
2015,07,05,00,31,13.80
2015,07,05,00,32,13.90
2015,07,05,00,33,13.90
2015,07,05,00,34,13.90
2015,07,05,00,35,13.90
2015,07,05,00,36,13.90
2015,07,05,00,37,13.90
2015,07,05,00,38,13.90
2015,07,05,00,39,13.90
2015,07,05,00,40,13.90
2015,07,05,00,41,13.90
2015,07,05,00,42,13.90
2015,07,05,00,43,13.90
2015,07,05,00,44,13.90
2015,07,05,00,45,13.90
2015,07,05,00,46,13.90
2015,07,05,00,47,13.90
2015,07,05,00,48,13.90
2015,07,05,00,49,13.90
2015,07,05,00,50,13.90
2015,07,05,00,51,13.90
2015,07,05,00,52,13.90
2015,07,05,00,53,13.90
2015,07,05,00,54,13.80
2015,07,05,00,55,13.80
2015,07,05,00,56,13.80
2015,07,05,00,57,13.90
2015,07,05,00,58,13.90
2015,07,05,00,59,13.90
2015,07,05,01,00,13.90
2015,07,05,01,01,13.90
2015,07,05,01,02,13.90
2015,07,05,01,03,13.90
2015,07,05,01,04,13.90
2015,07,05,01,05,13.90
2015,07,05,01,06,13.90
2015,07,05,01,07,13.90
2015,07,05,01,08,13.90
2015,07,05,01,09,13.90
2015,07,05,01,10,14.00
2015,07,05,01,11,14.00
2015,07,05,01,12,14.00
2015,07,05,01,13,14.00
2015,07,05,01,14,14.00
2015,07,05,01,15,14.00
2015,07,05,01,16,14.00
2015,07,05,01,17,14.00
2015,07,05,01,18,14.00
2015,07,05,01,19,14.00
2015,07,05,01,20,14.00
2015,07,05,01,21,14.00
2015,07,05,01,22,14.00
2015,07,05,01,23,14.00
2015,07,05,01,24,14.00
2015,07,05,01,25,14.00
2015,07,05,01,26,14.00
2015,07,05,01,27,14.00
2015,07,05,01,28,14.00
2015,07,05,01,29,14.00
2015,07,05,01,30,14.00
2015,07,05,01,31,14.00
2015,07,05,01,32,14.00
2015,07,05,01,33,14.00
2015,07,05,01,34,14.00
2015,07,05,01,35,14.00
2015,07,05,01,36,14.00
2015,07,05,01,37,14.00
2015,07,05,01,38,14.00
2015,07,05,01,39,14.00
2015,07,05,01,40,14.00
2015,07,05,01,41,14.00
2015,07,05,01,42,14.00
2015,07,05,01,43,14.00
2015,07,05,01,44,14.00
2015,07,05,01,45,13.90
2015,07,05,01,46,13.90
2015,07,05,01,47,14.00
2015,07,05,01,48,14.00
2015,07,05,01,49,14.00
2015,07,05,01,50,14.10
2015,07,05,01,51,14.10
2015,07,05,01,52,14.10
2015,07,05,01,53,14.20
2015,07,05,01,54,14.20
2015,07,05,01,55,14.30
2015,07,05,01,56,14.30
2015,07,05,01,57,14.40
2015,07,05,01,58,14.50
2015,07,05,01,59,14.60
2015,07,05,02,00,14.60
2015,07,05,02,01,14.70
2015,07,05,02,02,14.70
2015,07,05,02,03,14.70
2015,07,05,02,04,14.80
2015,07,05,02,05,14.80
2015,07,05,02,06,14.80
2015,07,05,02,07,14.80
2015,07,05,02,08,14.80
2015,07,05,02,09,14.80
2015,07,05,02,10,14.80
2015,07,05,02,11,14.80
2015,07,05,02,12,14.80
2015,07,05,02,13,14.80
2015,07,05,02,14,14.80
2015,07,05,02,15,14.80
2015,07,05,02,16,14.80
2015,07,05,02,17,14.70
2015,07,05,02,18,14.70
2015,07,05,02,19,14.70
2015,07,05,02,20,14.70
2015,07,05,02,21,14.70
2015,07,05,02,22,14.70
2015,07,05,02,23,14.70
2015,07,05,02,24,14.60
2015,07,05,02,25,14.60
2015,07,05,02,26,14.60
2015,07,05,02,27,14.60
2015,07,05,02,28,14.60
2015,07,05,02,29,14.70
2015,07,05,02,30,14.70
2015,07,05,02,31,14.70
2015,07,05,02,32,14.70
2015,07,05,02,33,14.70
2015,07,05,02,34,14.80
2015,07,05,02,35,14.80
2015,07,05,02,36,14.80
2015,07,05,02,37,14.80
2015,07,05,02,38,14.90
2015,07,05,02,39,14.90
2015,07,05,02,40,14.90
2015,07,05,02,41,14.90
2015,07,05,02,42,15.00
2015,07,05,02,43,15.00
2015,07,05,02,44,15.00
2015,07,05,02,45,15.10
2015,07,05,02,46,15.10
2015,07,05,02,47,15.10
2015,07,05,02,48,15.10
2015,07,05,02,49,15.10
2015,07,05,02,50,15.20
2015,07,05,02,51,15.20
2015,07,05,02,52,15.20
2015,07,05,02,53,15.20
2015,07,05,02,54,15.20
2015,07,05,02,55,15.20
2015,07,05,02,56,15.20
2015,07,05,02,57,15.20
2015,07,05,02,58,15.20
2015,07,05,02,59,15.20
2015,07,05,03,00,15.20
2015,07,05,03,01,15.20
2015,07,05,03,02,15.20
2015,07,05,03,03,15.10
2015,07,05,03,04,15.10
2015,07,05,03,05,15.10
2015,07,05,03,06,15.10
2015,07,05,03,07,15.00
2015,07,05,03,08,15.00
2015,07,05,03,09,15.00
2015,07,05,03,10,14.90
2015,07,05,03,11,14.90
2015,07,05,03,12,14.90
2015,07,05,03,13,14.90
2015,07,05,03,14,14.90
2015,07,05,03,15,14.90
2015,07,05,03,16,14.90
2015,07,05,03,17,14.90
2015,07,05,03,18,15.00
2015,07,05,03,19,15.00
2015,07,05,03,20,15.10
2015,07,05,03,21,15.10
2015,07,05,03,22,15.10
2015,07,05,03,23,15.10
2015,07,05,03,24,15.10
2015,07,05,03,25,15.10
2015,07,05,03,26,15.20
2015,07,05,03,27,15.20
2015,07,05,03,28,15.20
2015,07,05,03,29,15.20
2015,07,05,03,30,15.20
2015,07,05,03,31,15.20
2015,07,05,03,32,15.30
2015,07,05,03,33,15.30
2015,07,05,03,34,15.30
2015,07,05,03,35,15.30
2015,07,05,03,36,15.40
2015,07,05,03,37,15.40
2015,07,05,03,38,15.40
2015,07,05,03,39,15.40
2015,07,05,03,40,15.40
2015,07,05,03,41,15.40
2015,07,05,03,42,15.50
2015,07,05,03,43,15.50
2015,07,05,03,44,15.50
2015,07,05,03,45,15.50
2015,07,05,03,46,15.50
2015,07,05,03,47,15.50
2015,07,05,03,48,15.60
2015,07,05,03,49,15.60
2015,07,05,03,50,15.60
2015,07,05,03,51,15.60
2015,07,05,03,52,15.60
2015,07,05,03,53,15.60
2015,07,05,03,54,15.60
2015,07,05,03,55,15.60
2015,07,05,03,56,15.60
2015,07,05,03,57,15.70
2015,07,05,03,58,15.70
2015,07,05,03,59,15.70
2015,07,05,04,00,15.70
2015,07,05,04,01,15.70
2015,07,05,04,02,15.70
2015,07,05,04,03,15.70
2015,07,05,04,04,15.60
2015,07,05,04,05,15.60
2015,07,05,04,06,15.60
2015,07,05,04,07,15.60
2015,07,05,04,08,15.60
2015,07,05,04,09,15.60
2015,07,05,04,10,15.60
2015,07,05,04,11,15.60
2015,07,05,04,12,15.50
2015,07,05,04,13,15.50
2015,07,05,04,14,15.50
2015,07,05,04,15,15.40
2015,07,05,04,16,15.40
2015,07,05,04,17,15.40
2015,07,05,04,18,15.40
2015,07,05,04,19,15.40
2015,07,05,04,20,15.30
2015,07,05,04,21,15.30
2015,07,05,04,22,15.30
2015,07,05,04,23,15.30
2015,07,05,04,24,15.30
2015,07,05,04,25,15.20
2015,07,05,04,26,15.20
2015,07,05,04,27,15.20
2015,07,05,04,28,15.20
2015,07,05,04,29,15.20
2015,07,05,04,30,15.10
2015,07,05,04,31,15.10
2015,07,05,04,32,15.10
2015,07,05,04,33,15.10
2015,07,05,04,34,15.00
2015,07,05,04,35,15.00
2015,07,05,04,36,15.00
2015,07,05,04,37,14.90
2015,07,05,04,38,14.90
2015,07,05,04,39,14.90
2015,07,05,04,40,14.90
2015,07,05,04,41,14.80
2015,07,05,04,42,14.80
2015,07,05,04,43,14.80
2015,07,05,04,44,14.70
2015,07,05,04,45,14.70
2015,07,05,04,46,14.70
2015,07,05,04,47,14.60
2015,07,05,04,48,14.60
2015,07,05,04,49,14.60
2015,07,05,04,50,14.50
2015,07,05,04,51,14.50
2015,07,05,04,52,14.50
2015,07,05,04,53,14.40
2015,07,05,04,54,14.40
2015,07,05,04,55,14.40
2015,07,05,04,56,14.30
2015,07,05,04,57,14.30
2015,07,05,04,58,14.30
2015,07,05,04,59,14.30
2015,07,05,05,00,14.30
2015,07,05,05,01,14.20
2015,07,05,05,02,14.20
2015,07,05,05,03,14.20
2015,07,05,05,04,14.20
2015,07,05,05,05,14.20
2015,07,05,05,06,14.20
2015,07,05,05,07,14.20
2015,07,05,05,08,14.30
2015,07,05,05,09,14.30
2015,07,05,05,10,14.40
2015,07,05,05,11,14.40
2015,07,05,05,12,14.50
2015,07,05,05,13,14.50
2015,07,05,05,14,14.50
2015,07,05,05,15,14.60
2015,07,05,05,16,14.60
2015,07,05,05,17,14.60
2015,07,05,05,18,14.70
2015,07,05,05,19,14.70
2015,07,05,05,20,14.80
2015,07,05,05,21,14.80
2015,07,05,05,22,14.90
2015,07,05,05,23,14.90
2015,07,05,05,24,14.90
2015,07,05,05,25,14.90
2015,07,05,05,26,14.90
2015,07,05,05,27,15.00
2015,07,05,05,28,15.00
2015,07,05,05,29,15.10
2015,07,05,05,30,15.10
2015,07,05,05,31,15.10
2015,07,05,05,32,15.20
2015,07,05,05,33,15.20
2015,07,05,05,34,15.20
2015,07,05,05,35,15.20
2015,07,05,05,36,15.20
2015,07,05,05,37,15.20
2015,07,05,05,38,15.30
2015,07,05,05,39,15.30
2015,07,05,05,40,15.30
2015,07,05,05,41,15.30
2015,07,05,05,42,15.30
2015,07,05,05,43,15.40
2015,07,05,05,44,15.40
2015,07,05,05,45,15.40
2015,07,05,05,46,15.40
2015,07,05,05,47,15.40
2015,07,05,05,48,15.40
2015,07,05,05,49,15.40
2015,07,05,05,50,15.50
2015,07,05,05,51,15.50
2015,07,05,05,52,15.50
2015,07,05,05,53,15.50
2015,07,05,05,54,15.50
2015,07,05,05,55,15.60
2015,07,05,05,56,15.60
2015,07,05,05,57,15.60
2015,07,05,05,58,15.60
2015,07,05,05,59,15.60
2015,07,05,06,00,15.70
2015,07,05,06,01,15.70
2015,07,05,06,02,15.80
2015,07,05,06,03,15.80
2015,07,05,06,04,15.80
2015,07,05,06,05,15.80
2015,07,05,06,06,15.90
2015,07,05,06,07,15.90
2015,07,05,06,08,15.90
2015,07,05,06,09,15.90
2015,07,05,06,10,15.90
2015,07,05,06,11,15.90
2015,07,05,06,12,15.90
2015,07,05,06,13,15.90
2015,07,05,06,14,15.80
2015,07,05,06,15,15.90
2015,07,05,06,16,15.80
2015,07,05,06,17,15.80
2015,07,05,06,18,15.80
2015,07,05,06,19,15.80
2015,07,05,06,20,15.80
2015,07,05,06,21,15.80
2015,07,05,06,22,15.80
2015,07,05,06,23,15.80
2015,07,05,06,24,15.80
2015,07,05,06,25,15.80
2015,07,05,06,26,15.80
2015,07,05,06,27,15.80
2015,07,05,06,28,15.80
2015,07,05,06,29,15.80
2015,07,05,06,30,15.80
2015,07,05,06,31,15.80
2015,07,05,06,32,15.80
2015,07,05,06,33,15.80
2015,07,05,06,34,15.80
2015,07,05,06,35,15.80
2015,07,05,06,36,15.90
2015,07,05,06,37,15.90
2015,07,05,06,38,15.90
2015,07,05,06,39,15.90
2015,07,05,06,40,15.90
2015,07,05,06,41,15.90
2015,07,05,06,42,15.90
2015,07,05,06,43,16.00
2015,07,05,06,44,16.00
2015,07,05,06,45,16.00
2015,07,05,06,46,16.00
2015,07,05,06,47,16.00
2015,07,05,06,48,16.10
2015,07,05,06,49,16.10
2015,07,05,06,50,16.10
2015,07,05,06,51,16.10
2015,07,05,06,52,16.10
2015,07,05,06,53,16.10
2015,07,05,06,54,16.10
2015,07,05,06,55,16.10
2015,07,05,06,56,16.20
2015,07,05,06,57,16.20
2015,07,05,06,58,16.20
2015,07,05,06,59,16.20
2015,07,05,07,00,16.20
2015,07,05,07,01,16.20
2015,07,05,07,02,16.20
2015,07,05,07,03,16.20
2015,07,05,07,04,16.20
2015,07,05,07,05,16.20
2015,07,05,07,06,16.20
2015,07,05,07,07,16.20
2015,07,05,07,08,16.20
2015,07,05,07,09,16.20
2015,07,05,07,10,16.20
2015,07,05,07,11,16.30
2015,07,05,07,12,16.30
2015,07,05,07,13,16.20
2015,07,05,07,14,16.30
2015,07,05,07,15,16.30
2015,07,05,07,16,16.30
2015,07,05,07,17,16.30
2015,07,05,07,18,16.30
2015,07,05,07,19,16.30
2015,07,05,07,20,16.30
2015,07,05,07,21,16.40
2015,07,05,07,22,16.40
2015,07,05,07,23,16.40
2015,07,05,07,24,16.50
2015,07,05,07,25,16.50
2015,07,05,07,26,16.60
2015,07,05,07,27,16.60
2015,07,05,07,28,16.70
2015,07,05,07,29,16.70
2015,07,05,07,30,16.70
2015,07,05,07,31,16.80
2015,07,05,07,32,16.80
2015,07,05,07,33,16.80
2015,07,05,07,34,16.80
2015,07,05,07,35,16.90
2015,07,05,07,36,16.90
2015,07,05,07,37,16.90
2015,07,05,07,38,17.00
2015,07,05,07,39,17.00
2015,07,05,07,40,17.00
2015,07,05,07,41,17.10
2015,07,05,07,42,17.10
2015,07,05,07,43,17.10
2015,07,05,07,44,17.20
2015,07,05,07,45,17.20
2015,07,05,07,46,17.20
2015,07,05,07,47,17.30
2015,07,05,07,48,17.30
2015,07,05,07,49,17.40
2015,07,05,07,50,17.40
2015,07,05,07,51,17.50
2015,07,05,07,52,17.50
2015,07,05,07,53,17.60
2015,07,05,07,54,17.60
2015,07,05,07,55,17.70
2015,07,05,07,56,17.70
2015,07,05,07,57,17.80
2015,07,05,07,58,17.80
2015,07,05,07,59,17.80
2015,07,05,08,00,17.90
2015,07,05,08,01,17.90
2015,07,05,08,02,17.90
2015,07,05,08,03,18.00
2015,07,05,08,04,18.00
2015,07,05,08,05,18.00
2015,07,05,08,06,18.10
2015,07,05,08,07,18.10
2015,07,05,08,08,18.10
2015,07,05,08,09,18.20
2015,07,05,08,10,18.20
2015,07,05,08,11,18.20
2015,07,05,08,12,18.20
2015,07,05,08,13,18.20
2015,07,05,08,14,18.30
2015,07,05,08,15,18.30
2015,07,05,08,16,18.30
2015,07,05,08,17,18.30
2015,07,05,08,18,18.30
2015,07,05,08,19,18.30
2015,07,05,08,20,18.30
2015,07,05,08,21,18.30
2015,07,05,08,22,18.30
2015,07,05,08,23,18.30
2015,07,05,08,24,18.30
2015,07,05,08,25,18.30
2015,07,05,08,26,18.30
2015,07,05,08,27,18.30
2015,07,05,08,28,18.30
2015,07,05,08,29,18.30
2015,07,05,08,30,18.30
2015,07,05,08,31,18.30
2015,07,05,08,32,18.30
2015,07,05,08,33,18.40
2015,07,05,08,34,18.40
2015,07,05,08,35,18.40
2015,07,05,08,36,18.50
2015,07,05,08,37,18.50
2015,07,05,08,38,18.60
2015,07,05,08,39,18.60
2015,07,05,08,40,18.70
2015,07,05,08,41,18.70
2015,07,05,08,42,18.80
2015,07,05,08,43,18.80
2015,07,05,08,44,18.90
2015,07,05,08,45,18.90
2015,07,05,08,46,19.00
2015,07,05,08,47,19.10
2015,07,05,08,48,19.10
2015,07,05,08,49,19.20
2015,07,05,08,50,19.30
2015,07,05,08,51,19.30
2015,07,05,08,52,19.40
2015,07,05,08,53,19.50
2015,07,05,08,54,19.50
2015,07,05,08,55,19.60
2015,07,05,08,56,19.70
2015,07,05,08,57,19.70
2015,07,05,08,58,19.80
2015,07,05,08,59,19.80
2015,07,05,09,00,19.90
2015,07,05,09,01,20.00
2015,07,05,09,02,20.00
2015,07,05,09,03,20.10
2015,07,05,09,04,20.20
2015,07,05,09,05,20.20
2015,07,05,09,06,20.30
2015,07,05,09,07,20.40
2015,07,05,09,08,20.50
2015,07,05,09,09,20.50
2015,07,05,09,10,20.60
2015,07,05,09,11,20.70
2015,07,05,09,12,20.70
2015,07,05,09,13,20.80
2015,07,05,09,14,20.90
2015,07,05,09,15,20.90
2015,07,05,09,16,21.00
2015,07,05,09,17,21.00
2015,07,05,09,18,21.10
2015,07,05,09,19,21.10
2015,07,05,09,20,21.20
2015,07,05,09,21,21.20
2015,07,05,09,22,21.30
2015,07,05,09,23,21.30
2015,07,05,09,24,21.40
2015,07,05,09,25,21.40
2015,07,05,09,26,21.50
2015,07,05,09,27,21.50
2015,07,05,09,28,21.60
2015,07,05,09,29,21.60
2015,07,05,09,30,21.60
2015,07,05,09,31,21.70
2015,07,05,09,32,21.70
2015,07,05,09,33,21.70
2015,07,05,09,34,21.70
2015,07,05,09,35,21.70
2015,07,05,09,36,21.70
2015,07,05,09,37,21.70
2015,07,05,09,38,21.70
2015,07,05,09,39,21.70
2015,07,05,09,40,21.70
2015,07,05,09,41,21.60
2015,07,05,09,42,21.60
2015,07,05,09,43,21.60
2015,07,05,09,44,21.60
2015,07,05,09,45,21.60
2015,07,05,09,46,21.70
2015,07,05,09,47,21.70
2015,07,05,09,48,21.70
2015,07,05,09,49,21.70
2015,07,05,09,50,21.80
2015,07,05,09,51,21.80
2015,07,05,09,52,21.80
2015,07,05,09,53,21.80
2015,07,05,09,54,21.80
2015,07,05,09,55,21.80
2015,07,05,09,56,21.70
2015,07,05,09,57,21.70
2015,07,05,09,58,21.70
2015,07,05,09,59,21.70
2015,07,05,10,00,21.70
2015,07,05,10,01,21.70
2015,07,05,10,02,21.70
2015,07,05,10,03,21.70
2015,07,05,10,04,21.70
2015,07,05,10,05,21.70
2015,07,05,10,06,21.70
2015,07,05,10,07,21.70
2015,07,05,10,08,21.70
2015,07,05,10,09,21.70
2015,07,05,10,10,21.70
2015,07,05,10,11,21.70
2015,07,05,10,12,21.70
2015,07,05,10,13,21.70
2015,07,05,10,14,21.80
2015,07,05,10,15,21.80
2015,07,05,10,16,21.70
2015,07,05,10,17,21.70
2015,07,05,10,18,21.70
2015,07,05,10,19,21.70
2015,07,05,10,20,21.70
2015,07,05,10,21,21.70
2015,07,05,10,22,21.70
2015,07,05,10,23,21.70
2015,07,05,10,24,21.70
2015,07,05,10,25,21.60
2015,07,05,10,26,21.60
2015,07,05,10,27,21.60
2015,07,05,10,28,21.60
2015,07,05,10,29,21.60
2015,07,05,10,30,21.60
2015,07,05,10,31,21.60
2015,07,05,10,32,21.60
2015,07,05,10,33,21.60
2015,07,05,10,34,21.60
2015,07,05,10,35,21.60
2015,07,05,10,36,21.60
2015,07,05,10,37,21.60
2015,07,05,10,38,21.60
2015,07,05,10,39,21.50
2015,07,05,10,40,21.50
2015,07,05,10,41,21.50
2015,07,05,10,42,21.50
2015,07,05,10,43,21.60
2015,07,05,10,44,21.50
2015,07,05,10,45,21.50
2015,07,05,10,46,21.50
2015,07,05,10,47,21.50
2015,07,05,10,48,21.50
2015,07,05,10,49,21.50
2015,07,05,10,50,21.50
2015,07,05,10,51,21.50
2015,07,05,10,52,21.50
2015,07,05,10,53,21.50
2015,07,05,10,54,21.50
2015,07,05,10,55,21.50
2015,07,05,10,56,21.50
2015,07,05,10,57,21.50
2015,07,05,10,58,21.50
2015,07,05,10,59,21.50
2015,07,05,11,00,21.50
2015,07,05,11,01,21.50
2015,07,05,11,02,21.50
2015,07,05,11,03,21.50
2015,07,05,11,04,21.50
2015,07,05,11,05,21.50
2015,07,05,11,06,21.50
2015,07,05,11,07,21.50
2015,07,05,11,08,21.50
2015,07,05,11,09,21.50
2015,07,05,11,10,21.50
2015,07,05,11,11,21.50
2015,07,05,11,12,21.50
2015,07,05,11,13,21.50
2015,07,05,11,14,21.50
2015,07,05,11,15,21.50
2015,07,05,11,16,21.50
2015,07,05,11,17,21.50
2015,07,05,11,18,21.50
2015,07,05,11,19,21.50
2015,07,05,11,20,21.50
2015,07,05,11,21,21.50
2015,07,05,11,22,21.50
2015,07,05,11,23,21.50
2015,07,05,11,24,21.50
2015,07,05,11,25,21.60
2015,07,05,11,26,21.60
2015,07,05,11,27,21.60
2015,07,05,11,28,21.60
2015,07,05,11,29,21.60
2015,07,05,11,30,21.70
2015,07,05,11,31,21.70
2015,07,05,11,32,21.70
2015,07,05,11,33,21.80
2015,07,05,11,34,21.80
2015,07,05,11,35,21.80
2015,07,05,11,36,21.90
2015,07,05,11,37,21.90
2015,07,05,11,38,22.00
2015,07,05,11,39,22.00
2015,07,05,11,40,22.10
2015,07,05,11,41,22.10
2015,07,05,11,42,22.20
2015,07,05,11,43,22.20
2015,07,05,11,44,22.30
2015,07,05,11,45,22.30
2015,07,05,11,46,22.30
2015,07,05,11,47,22.40
2015,07,05,11,48,22.40
2015,07,05,11,49,22.50
2015,07,05,11,50,22.60
2015,07,05,11,51,22.60
2015,07,05,11,52,22.70
2015,07,05,11,53,22.70
2015,07,05,11,54,22.80
2015,07,05,11,55,22.80
2015,07,05,11,56,22.80
2015,07,05,11,57,22.90
2015,07,05,11,58,22.90
2015,07,05,11,59,22.90
2015,07,05,12,00,23.00
2015,07,05,12,01,23.10
2015,07,05,12,02,23.10
2015,07,05,12,03,23.10
2015,07,05,12,04,23.20
2015,07,05,12,05,23.20
2015,07,05,12,06,23.20
2015,07,05,12,07,23.20
2015,07,05,12,08,23.30
2015,07,05,12,09,23.30
2015,07,05,12,10,23.30
2015,07,05,12,11,23.40
2015,07,05,12,12,23.40
2015,07,05,12,13,23.40
2015,07,05,12,14,23.50
2015,07,05,12,15,23.60
2015,07,05,12,16,23.60
2015,07,05,12,17,23.70
2015,07,05,12,18,23.70
2015,07,05,12,19,23.80
2015,07,05,12,20,23.80
2015,07,05,12,21,23.90
2015,07,05,12,22,23.90
2015,07,05,12,23,24.00
2015,07,05,12,24,24.10
2015,07,05,12,25,24.20
2015,07,05,12,26,24.20
2015,07,05,12,27,24.30
2015,07,05,12,28,24.30
2015,07,05,12,29,24.40
2015,07,05,12,30,24.40
2015,07,05,12,31,24.50
2015,07,05,12,32,24.50
2015,07,05,12,33,24.60
2015,07,05,12,34,24.60
2015,07,05,12,35,24.70
2015,07,05,12,36,24.70
2015,07,05,12,37,24.80
2015,07,05,12,38,24.90
2015,07,05,12,39,24.90
2015,07,05,12,40,25.00
2015,07,05,12,41,25.10
2015,07,05,12,42,25.10
2015,07,05,12,43,25.20
2015,07,05,12,44,25.30
2015,07,05,12,45,25.40
2015,07,05,12,46,25.50
2015,07,05,12,47,25.60
2015,07,05,12,48,25.60
2015,07,05,12,49,25.70
2015,07,05,12,50,25.80
2015,07,05,12,51,25.80
2015,07,05,12,52,25.90
2015,07,05,12,53,25.90
2015,07,05,12,54,26.00
2015,07,05,12,55,26.10
2015,07,05,12,56,26.10
2015,07,05,12,57,26.10
2015,07,05,12,58,26.20
2015,07,05,12,59,26.20
2015,07,05,13,00,26.20
2015,07,05,13,01,26.30
2015,07,05,13,02,26.30
2015,07,05,13,03,26.40
2015,07,05,13,04,26.40
2015,07,05,13,05,26.50
2015,07,05,13,06,26.50
2015,07,05,13,07,26.60
2015,07,05,13,08,26.60
2015,07,05,13,09,26.70
2015,07,05,13,10,26.70
2015,07,05,13,11,26.70
2015,07,05,13,12,26.80
2015,07,05,13,13,26.80
2015,07,05,13,14,26.80
2015,07,05,13,15,26.90
2015,07,05,13,16,26.90
2015,07,05,13,17,27.00
2015,07,05,13,18,27.10
2015,07,05,13,19,27.10
2015,07,05,13,20,27.10
2015,07,05,13,21,27.20
2015,07,05,13,22,27.20
2015,07,05,13,23,27.30
2015,07,05,13,24,27.30
2015,07,05,13,25,27.40
2015,07,05,13,26,27.40
2015,07,05,13,27,27.50
2015,07,05,13,28,27.50
2015,07,05,13,29,27.50
2015,07,05,13,30,27.50
2015,07,05,13,31,27.60
2015,07,05,13,32,27.60
2015,07,05,13,33,27.60
2015,07,05,13,34,27.70
2015,07,05,13,35,27.70
2015,07,05,13,36,27.70
2015,07,05,13,37,27.80
2015,07,05,13,38,27.80
2015,07,05,13,39,27.80
2015,07,05,13,40,27.80
2015,07,05,13,41,27.90
2015,07,05,13,42,27.90
2015,07,05,13,43,27.90
2015,07,05,13,44,28.00
2015,07,05,13,45,28.00
2015,07,05,13,46,28.10
2015,07,05,13,47,28.10
2015,07,05,13,48,28.10
2015,07,05,13,49,28.10
2015,07,05,13,50,28.20
2015,07,05,13,51,28.20
2015,07,05,13,52,28.20
2015,07,05,13,53,28.30
2015,07,05,13,54,28.30
2015,07,05,13,55,28.30
2015,07,05,13,56,28.40
2015,07,05,13,57,28.40
2015,07,05,13,58,28.40
2015,07,05,13,59,28.50
2015,07,05,14,00,28.60
2015,07,05,14,01,28.60
2015,07,05,14,02,28.70
2015,07,05,14,03,28.70
2015,07,05,14,04,28.70
2015,07,05,14,05,28.80
2015,07,05,14,06,28.90
2015,07,05,14,07,28.90
2015,07,05,14,08,29.00
2015,07,05,14,09,29.10
2015,07,05,14,10,29.10
2015,07,05,14,11,29.20
2015,07,05,14,12,29.20
2015,07,05,14,13,29.10
2015,07,05,14,14,29.10
2015,07,05,14,15,29.10
2015,07,05,14,16,29.00
2015,07,05,14,17,29.00
2015,07,05,14,18,29.00
2015,07,05,14,19,29.00
2015,07,05,14,20,29.00
2015,07,05,14,21,29.00
2015,07,05,14,22,29.10
2015,07,05,14,23,29.10
2015,07,05,14,24,29.10
2015,07,05,14,25,29.10
2015,07,05,14,26,29.20
2015,07,05,14,27,29.20
2015,07,05,14,28,29.30
2015,07,05,14,29,29.30
2015,07,05,14,30,29.30
2015,07,05,14,31,29.40
2015,07,05,14,32,29.50
2015,07,05,14,33,29.60
2015,07,05,14,34,29.70
2015,07,05,14,35,29.80
2015,07,05,14,36,29.80
2015,07,05,14,37,29.90
2015,07,05,14,38,30.00
2015,07,05,14,39,30.00
2015,07,05,14,40,30.10
2015,07,05,14,41,30.10
2015,07,05,14,42,30.10
2015,07,05,14,43,30.20
2015,07,05,14,44,30.20
2015,07,05,14,45,30.20
2015,07,05,14,46,30.30
2015,07,05,14,47,30.30
2015,07,05,14,48,30.30
2015,07,05,14,49,30.20
2015,07,05,14,50,30.10
2015,07,05,14,51,30.00
2015,07,05,14,52,29.90
2015,07,05,14,53,29.80
2015,07,05,14,54,29.70
2015,07,05,14,55,29.70
2015,07,05,14,56,29.70
2015,07,05,14,57,29.70
2015,07,05,14,58,29.70
2015,07,05,14,59,29.70
2015,07,05,15,00,29.70
2015,07,05,15,01,29.70
2015,07,05,15,02,29.80
2015,07,05,15,03,29.80
2015,07,05,15,04,29.80
2015,07,05,15,05,29.90
2015,07,05,15,06,29.90
2015,07,05,15,07,29.90
2015,07,05,15,08,29.90
2015,07,05,15,09,29.90
2015,07,05,15,10,29.90
2015,07,05,15,11,29.90
2015,07,05,15,12,30.00
2015,07,05,15,13,30.00
2015,07,05,15,14,30.10
2015,07,05,15,15,30.10
2015,07,05,15,16,30.10
2015,07,05,15,17,30.10
2015,07,05,15,18,30.10
2015,07,05,15,19,30.10
2015,07,05,15,20,30.00
2015,07,05,15,21,30.00
2015,07,05,15,22,29.90
2015,07,05,15,23,29.80
2015,07,05,15,24,29.80
2015,07,05,15,25,29.80
2015,07,05,15,26,29.80
2015,07,05,15,27,29.80
2015,07,05,15,28,29.80
2015,07,05,15,29,29.80
2015,07,05,15,30,29.90
2015,07,05,15,31,29.90
2015,07,05,15,32,29.90
2015,07,05,15,33,29.90
2015,07,05,15,34,29.80
2015,07,05,15,35,29.70
2015,07,05,15,36,29.60
2015,07,05,15,37,29.40
2015,07,05,15,38,29.30
2015,07,05,15,39,29.20
2015,07,05,15,40,29.10
2015,07,05,15,41,29.00
2015,07,05,15,42,28.80
2015,07,05,15,43,28.70
2015,07,05,15,44,28.60
2015,07,05,15,45,28.60
2015,07,05,15,46,28.50
2015,07,05,15,47,28.40
2015,07,05,15,48,28.40
2015,07,05,15,49,28.40
2015,07,05,15,50,28.30
2015,07,05,15,51,28.30
2015,07,05,15,52,28.30
2015,07,05,15,53,28.30
2015,07,05,15,54,28.30
2015,07,05,15,55,28.20
2015,07,05,15,56,28.20
2015,07,05,15,57,28.20
2015,07,05,15,58,28.20
2015,07,05,15,59,28.10
2015,07,05,16,00,28.10
2015,07,05,16,01,28.10
2015,07,05,16,02,28.10
2015,07,05,16,03,28.10
2015,07,05,16,04,28.20
2015,07,05,16,05,28.20
2015,07,05,16,06,28.20
2015,07,05,16,07,28.30
2015,07,05,16,08,28.30
2015,07,05,16,09,28.30
2015,07,05,16,10,28.30
2015,07,05,16,11,28.30
2015,07,05,16,12,28.20
2015,07,05,16,13,28.20
2015,07,05,16,14,28.20
2015,07,05,16,15,28.20
2015,07,05,16,16,28.20
2015,07,05,16,17,28.20
2015,07,05,16,18,28.20
2015,07,05,16,19,28.20
2015,07,05,16,20,28.20
2015,07,05,16,21,28.30
2015,07,05,16,22,28.30
2015,07,05,16,23,28.30
2015,07,05,16,24,28.30
2015,07,05,16,25,28.20
2015,07,05,16,26,28.20
2015,07,05,16,27,28.20
2015,07,05,16,28,28.20
2015,07,05,16,29,28.10
2015,07,05,16,30,28.10
2015,07,05,16,31,28.10
2015,07,05,16,32,28.00
2015,07,05,16,33,28.00
2015,07,05,16,34,27.90
2015,07,05,16,35,27.90
2015,07,05,16,36,27.80
2015,07,05,16,37,27.80
2015,07,05,16,38,27.70
2015,07,05,16,39,27.70
2015,07,05,16,40,27.60
2015,07,05,16,41,27.60
2015,07,05,16,42,27.50
2015,07,05,16,43,27.50
2015,07,05,16,44,27.50
2015,07,05,16,45,27.40
2015,07,05,16,46,27.50
2015,07,05,16,47,27.40
2015,07,05,16,48,27.40
2015,07,05,16,49,27.40
2015,07,05,16,50,27.30
2015,07,05,16,51,27.30
2015,07,05,16,52,27.30
2015,07,05,16,53,27.30
2015,07,05,16,54,27.20
2015,07,05,16,55,27.20
2015,07,05,16,56,27.20
2015,07,05,16,57,27.10
2015,07,05,16,58,27.10
2015,07,05,16,59,27.10
2015,07,05,17,00,27.00
2015,07,05,17,01,27.00
2015,07,05,17,02,26.90
2015,07,05,17,03,26.90
2015,07,05,17,04,26.90
2015,07,05,17,05,26.90
2015,07,05,17,06,26.80
2015,07,05,17,07,26.80
2015,07,05,17,08,26.80
2015,07,05,17,09,26.80
2015,07,05,17,10,26.80
2015,07,05,17,11,26.80
2015,07,05,17,12,26.80
2015,07,05,17,13,26.80
2015,07,05,17,14,26.80
2015,07,05,17,15,26.80
2015,07,05,17,16,26.80
2015,07,05,17,17,26.80
2015,07,05,17,18,26.80
2015,07,05,17,19,26.90